Location: New Canada
(47.1017°N, 68.5042°W)
Time: 12:43:39
(UTC+00:00)

N. Korean satellite - Pass Details

Date: 05 December 2022
Orbit: 407 x 441 km, 97.3° (Epoch: 05 February)

Event Time Altitude Azimuth Distance (km) Brightness Sun altitude
Rises 10:31:09 0° 4° (N) 2,522 10.1 -15.1°
Reaches altitude 10° 10:33:20 10° 356° (N) 1,635 9.0 -14.8°
Maximum altitude 10:36:33 35° 290° (WNW) 773 7.0 -14.3°
Drops below altitude 10° 10:39:40 10° 223° (SW) 1,586 8.9 -13.8°
Sets 10:41:49 0° 214° (SW) 2,458 10.0 -13.4°
